| time (UTC) | temp F | wind direction | speed MPH | gust MPH | rain 1hr in | rain 24hr in | rain mn in | humidity % | barometer mb |
| 20260505061525 | 59 | 214 | 6.0 | 12.0 | 0.00 | 0.01 | 0.01 | 1 | 1004.3 |
| 20260505060015 | 58 | 232 | 2.0 | 7.0 | 0.00 | 0.01 | 0.01 | 1 | 1004.5 |
| 20260505054511 | 58 | 169 | 1.0 | 6.0 | 0.00 | 0.01 | 0.01 | 1 | 1004.4 |
| 20260505053012 | 59 | 246 | 3.0 | 8.0 | 0.00 | 0.01 | 0.01 | 1 | 1004.4 |
| 20260505051505 | 60 | 193 | 3.0 | 7.0 | 0.01 | 0.01 | 0.01 | 2 | 1004.5 |
| 20260505041547 | 64 | 252 | 6.0 | 11.0 | 0.00 | 0.00 | 0.00 | 57 | 1004.6 |
| 20260505040044 | 63 | 200 | 3.0 | 9.0 | 0.00 | 0.00 | 0.00 | 56 | 1004.6 |
| 20260505034547 | 62 | 236 | 3.0 | 8.0 | 0.00 | 0.00 | 0.00 | 56 | 1004.6 |
| 20260505033043 | 62 | 272 | 0.0 | 2.0 | 0.00 | 0.00 | 0.00 | 56 | 1004.8 |
| 20260505031548 | 63 | 225 | 0.0 | 3.0 | 0.00 | 0.00 | 0.00 | 53 | 1004.6 |
| 20260505030043 | 62 | 175 | 0.0 | 4.0 | 0.00 | 0.00 | 0.00 | 53 | 1004.6 |
| 20260505024541 | 62 | 169 | 0.0 | 3.0 | 0.00 | 0.00 | 0.00 | 52 | 1004.4 |
| 20260505023042 | 62 | 208 | 0.0 | 2.0 | 0.00 | 0.00 | 0.00 | 50 | 1004.5 |
| 20260505021541 | 64 | 205 | 0.0 | 5.0 | 0.00 | 0.00 | 0.00 | 45 | 1004.7 |
| 20260505020040 | 65 | 219 | 1.0 | 7.0 | 0.00 | 0.00 | 0.00 | 44 | 1004.8 |
| 20260505014539 | 65 | 219 | 2.0 | 4.0 | 0.00 | 0.00 | 0.00 | 42 | 1004.7 |
| 20260505013038 | 66 | 250 | 2.0 | 6.0 | 0.00 | 0.00 | 0.00 | 40 | 1004.6 |
| 20260505011541 | 66 | 204 | 2.0 | 6.0 | 0.00 | 0.00 | 0.00 | 41 | 1004.5 |
| 20260505010101 | 66 | 231 | 2.0 | 4.0 | 0.00 | 0.00 | 0.00 | 40 | 1004.4 |
| 20260505004535 | 66 | 215 | 0.0 | 4.0 | 0.00 | 0.00 | 0.00 | 40 | 1004.3 |
| 20260505003042 | 65 | 176 | 0.0 | 3.0 | 0.00 | 0.00 | 0.00 | 43 | 1004.3 |
| 20260505001534 | 65 | 242 | 0.0 | 1.0 | 0.00 | 0.00 | 0.00 | 44 | 1004.3 |
| 20260505000042 | 67 | 246 | 1.0 | 2.0 | 0.00 | 0.00 | 0.00 | 43 | 1004.3 |
| 20260504234533 | 68 | 263 | 1.0 | 6.0 | 0.00 | 0.00 | 0.00 | 38 | 1004.1 |
| 20260504233032 | 70 | 207 | 0.0 | 4.0 | 0.00 | 0.00 | 0.00 | 39 | 1004.0 |
| 20260504231531 | 71 | 223 | 2.0 | 5.0 | 0.00 | 0.00 | 0.00 | 34 | 1004.1 |
| 20260504230040 | 72 | 200 | 3.0 | 5.0 | 0.00 | 0.00 | 0.00 | 32 | 1004.0 |
| 20260504224532 | 73 | 270 | 2.0 | 6.0 | 0.00 | 0.00 | 0.00 | 34 | 1003.9 |
| 20260504223029 | 73 | 255 | 2.0 | 5.0 | 0.00 | 0.00 | 0.00 | 34 | 1004.0 |
| 20260504221542 | 73 | 266 | 3.0 | 8.0 | 0.00 | 0.00 | 0.00 | 37 | 1004.0 |
| 20260504220030 | 73 | 282 | 6.0 | 15.0 | 0.00 | 0.00 | 0.00 | 33 | 1004.1 |
| 20260504214526 | 73 | 263 | 9.0 | 18.0 | 0.00 | 0.00 | 0.00 | 34 | 1004.3 |
| 20260504213032 | 73 | 240 | 10.0 | 16.0 | 0.00 | 0.00 | 0.00 | 33 | 1004.3 |
| 20260504211525 | 73 | 254 | 8.0 | 14.0 | 0.00 | 0.00 | 0.00 | 33 | 1004.4 |
| 20260504210023 | 73 | 269 | 5.0 | 16.0 | 0.00 | 0.00 | 0.00 | 35 | 1004.3 |
| 20260504204525 | 73 | 286 | 9.0 | 20.0 | 0.00 | 0.00 | 0.00 | 34 | 1004.5 |
| 20260504203020 | 73 | 257 | 8.0 | 21.0 | 0.00 | 0.00 | 0.00 | 36 | 1004.7 |
| 20260504201516 | 73 | 252 | 8.0 | 13.0 | 0.00 | 0.00 | 0.00 | 37 | 1005.0 |
| 20260504200015 | 73 | 255 | 11.0 | 17.0 | 0.00 | 0.00 | 0.00 | 38 | 1005.2 |
| 20260504194512 | 72 | 251 | 10.0 | 18.0 | 0.00 | 0.00 | 0.00 | 41 | 1005.4 |
| 20260504193010 | 72 | 263 | 8.0 | 19.0 | 0.00 | 0.00 | 0.00 | 42 | 1005.7 |
| 20260504191507 | 72 | 235 | 12.0 | 19.0 | 0.00 | 0.00 | 0.00 | 39 | 1005.8 |
| 20260504190006 | 72 | 300 | 6.0 | 18.0 | 0.00 | 0.00 | 0.00 | 43 | 1006.1 |
| 20260504184503 | 71 | 297 | 10.0 | 20.0 | 0.00 | 0.00 | 0.00 | 44 | 1006.2 |
| 20260504183100 | 71 | 278 | 14.0 | 22.0 | 0.00 | 0.00 | 0.00 | 43 | 1006.5 |
| 20260504181601 | 69 | 268 | 9.0 | 18.0 | 0.00 | 0.00 | 0.00 | 45 | 1006.4 |
| 20260504180058 | 70 | 275 | 12.0 | 21.0 | 0.00 | 0.00 | 0.00 | 45 | 1006.7 |
| 20260504174553 | 69 | 257 | 10.0 | 24.0 | 0.00 | 0.00 | 0.00 | 46 | 1006.8 |
| 20260504173052 | 69 | 240 | 10.0 | 20.0 | 0.00 | 0.00 | 0.00 | 47 | 1006.7 |
| 20260504171552 | 68 | 294 | 11.0 | 18.0 | 0.00 | 0.00 | 0.00 | 48 | 1006.8 |
| 20260504081534 | 52 | 271 | 4.0 | 12.0 | 0.00 | 0.00 | 0.00 | 56 | 1009.6 |